Vertical_Velocity
1 1 -0 -4 4 3 0 4 9 2 -11 -7 -4 -5 -1 1 -1 2 2 -1 -3 -2 -2 2 -3 8 -0 -0 -2 0 -1 2 2 -0 3 1 1 -1
-0 2 2 1 1 4 4 -2 4 4 2 9 -4 -3 -1 -3 -2 -1 -0 3 2 2 1 -3 -1 0 -1 2 6 1 -0 -1 4 2 2 5 1 3
2 2 -3 5 -4 5 3 3 -2 6 3 2 -4 3 -6 -0 1 2 -1 3 -3 -3 -1 -1 -0 -0 0 3 4 5 3 1 1 6 -1 1 3 -4
-1 5 1 7 -0 2 3 -0 -1 0 6 6 -3 -6 -8 -2 -2 1 -1 3 -3 -3 0 4 2 1 1 3 -0 2 0 -0 2 -1 -1 2 3 1
-2 -2 2 5 0 -1 2 -0 3 3 -4 5 -8 2 1 3 -2 1 -3 -3 -1 2 1 2 0 -4 -3 -0 2 -0 3 2 -1 1 0 2 -0 2
3 3 -3 3 2 -2 -1 -1 0 2 8 -1 0 -3 -2 1 1 1 -8 2 -1 3 -0 -0 3 3 4 -1 -2 3 0 -3 0 1 0 -1 -0 0
-3 0 3 4 1 3 2 1 1 -3 3 1 0 -1 -2 -2 -5 -4 -3 -4 -4 -4 -4 -3 -4 1 -4 -3 -3 1 -3 2 11 10 2 2 5 1
-2 0 -1 -0 1 6 5 0 3 4 1 -2 -4 -3 -8 -2 -1 4 1 -3 -7 -10 -10 -6 4 0 -1 0 5 4 -1 1 6 -6 5 4 5 14
-1 -4 -4 1 0 1 5 2 -0 2 16 12 5 -3 -2 -1 2 -2 -1 3 -3 -0 1 -6 1 -5 -4 2 2 2 11 -4 7 1 -1 1 3 4
0 -0 -0 -1 -2 -1 4 8 8 -1 -6 -0 5 4 -1 -3 1 1 -0 -1 -2 1 6 -7 1 -15 0 -2 3 6 4 -0 2 -2 1 3 -2 1
-4 -3 -0 -0 -6 -4 4 3 0 -1 -1 -0 2 2 -2 -1 -1 2 -2 1 -2 3 0 2 -7 -3 0 -3 -1 -1 3 -3 3 0 -4 -2 -2 -2
-1 -2 -1 -4 -2 1 0 -0 -3 0 -1 -1 1 -1 4 0 0 3 -1 1 4 8 3 6 1 4 -4 -5 -1 -1 2 1 -0 0 0 1 4 -1
5 0 -1 -3 -2 -3 -2 2 4 11 2 -1 2 -2 3 -2 3 2 -2 4 -0 3 -3 3 -0 2 1 -4 -6 1 -7 -2 -2 -4 -0 -0 -1 0
3 -0 2 -2 5 -1 4 2 2 1 -1 4 6 -6 0 -3 -1 -3 -5 -2 -2 1 -2 0 1 0 1 -3 -6 -11 -0 -0 -2 -4 -1 -1 -1 -1
1 3 2 1 1 -6 3 2 1 -1 4 4 -1 -4 -3 -2 2 1 1 1 1 -0 1 -1 -2 -1 0 -1 -3 -8 -9 -13 -3 -2 -6 -10 -11 -7
3 3 -1 -3 -1 3 2 -3 -3 -2 1 -0 1 1 -1 -1 1 2 1 1 2 1 -1 -1 -1 -2 -2 -2 -1 -2 1 3 -4 -10 -13 -14 -8 -2
-1 -2 1 4 3 1 -0 1 4 5 3 -0 -2 -1 -0 -0 -0 0 0 -2 -3 -3 -3 -1 -0 -1 -2 -2 -3 2 -5 -4 4 4 -1 -4 -1 1
0 -1 -0 -1 -3 -2 -0 1 0 -1 -2 -2 -1 -0 0 1 -0 -2 -4 -2 -1 1 3 1 1 -2 -3 -7 -1 -1 1 -1 -0 2 3 -1 -8 23
2 2 2 0 -1 -0 0 -1 -2 -1 1 3 2 1 -0 -1 -1 0 1 1 0 -1 -2 -0 2 0 -2 -0 -5 2 0 3 1 0 4 6 -13 -13
-4 -1 0 1 1 1 1 0 -1 -0 0 -0 1 2 3 2 1 0 0 -0 -3 -3 1 1 -2 -1 2 -0 -2 -6 10 0 4 -0 -1 -2 -3 -3
3 2 -0 0 1 -1 -1 -0 1 1 -0 -1 -0 -1 -0 1 2 0 -1 -0 2 2 -1 0 3 5 2 3 1 -0 -2 6 5 -4 -7 -8 -12 -16
1 -0 -0 3 4 5 1 1 1 0 0 -1 -2 -3 -2 -2 -3 0 3 1 -1 -0 2 0 -0 -0 -0 2 -0 -1 -6 -5 3 -9 -4 1 7 -8
-3 -1 2 -2 -3 -4 1 -0 1 0 -1 -1 -1 -1 -1 -0 2 1 0 2 3 1 -2 -3 -3 -2 1 -1 0 0 3 -5 -14 -13 -4 -0 -1 -4
Height
1422 1425 1429 1432 1436 1437 1441 1444 1447 1447 1446 1447 1452 1456 1458 1460 1463 1465 1466 1467 1469 1471 1472 1473 1475 1476 1477 1478 1478 1480 1482 1483 1484 1485 1486 1485 1487 1488
1414 1416 1420 1423 1427 1430 1431 1435 1439 1442 1441 1442 1444 1447 1451 1452 1454 1456 1457 1458 1459 1460 1462 1464 1466 1467 1469 1469 1470 1471 1473 1475 1476 1477 1478 1479 1479 1480
1406 1408 1411 1415 1419 1422 1424 1425 1429 1433 1434 1435 1437 1440 1442 1444 1445 1447 1448 1449 1449 1451 1453 1455 1456 1457 1459 1460 1462 1462 1464 1465 1468 1468 1470 1471 1472 1473
1399 1402 1403 1407 1410 1414 1416 1418 1420 1423 1427 1428 1428 1430 1432 1435 1437 1438 1439 1439 1440 1441 1443 1444 1445 1446 1448 1449 1451 1453 1455 1456 1457 1459 1461 1462 1464 1465
1393 1395 1397 1400 1403 1406 1408 1410 1412 1415 1418 1421 1420 1423 1424 1426 1428 1428 1429 1430 1430 1432 1433 1433 1434 1435 1437 1439 1440 1443 1444 1445 1448 1449 1450 1452 1455 1456
1387 1389 1391 1394 1395 1399 1401 1403 1405 1408 1409 1411 1414 1415 1417 1418 1419 1420 1420 1421 1420 1422 1424 1424 1424 1425 1427 1428 1431 1432 1434 1436 1436 1439 1440 1441 1444 1445
1383 1385 1386 1388 1390 1393 1394 1396 1398 1402 1403 1403 1406 1408 1409 1409 1410 1412 1412 1413 1412 1413 1414 1415 1416 1417 1419 1420 1420 1422 1423 1424 1423 1424 1429 1431 1432 1433
1379 1380 1381 1383 1385 1388 1389 1391 1393 1395 1396 1397 1398 1400 1401 1402 1404 1405 1405 1405 1405 1406 1405 1405 1407 1406 1408 1410 1412 1412 1410 1413 1414 1414 1416 1417 1417 1418
1374 1376 1377 1379 1380 1382 1384 1386 1387 1389 1389 1390 1391 1392 1393 1395 1398 1397 1398 1398 1397 1399 1400 1396 1399 1395 1399 1401 1403 1404 1403 1404 1405 1405 1406 1407 1406 1408
1369 1370 1371 1372 1374 1377 1379 1380 1381 1381 1381 1383 1385 1384 1385 1387 1389 1390 1391 1390 1392 1392 1392 1388 1389 1387 1389 1391 1393 1393 1394 1395 1395 1395 1396 1395 1395 1395
1363 1364 1366 1367 1368 1371 1373 1374 1374 1374 1374 1375 1376 1376 1377 1378 1380 1381 1381 1383 1383 1382 1381 1381 1381 1381 1381 1383 1383 1384 1383 1383 1384 1384 1383 1384 1383 1382
1357 1358 1358 1359 1360 1363 1366 1367 1367 1368 1368 1368 1368 1368 1369 1370 1370 1372 1373 1373 1373 1373 1373 1374 1374 1373 1373 1373 1374 1375 1374 1374 1375 1374 1375 1375 1374 1372
1354 1354 1355 1355 1356 1358 1360 1360 1361 1361 1361 1362 1362 1362 1363 1364 1365 1364 1365 1365 1366 1367 1367 1368 1367 1366 1367 1366 1367 1368 1367 1367 1366 1366 1366 1365 1363 1362
1353 1353 1353 1354 1354 1354 1355 1355 1356 1357 1356 1359 1359 1359 1360 1359 1358 1359 1360 1362 1363 1364 1363 1363 1362 1360 1358 1356 1356 1359 1359 1358 1357 1356 1355 1353 1353 1352
1355 1354 1354 1354 1353 1353 1353 1353 1353 1354 1353 1354 1353 1355 1357 1359 1359 1360 1360 1360 1360 1359 1358 1356 1355 1354 1353 1350 1348 1348 1347 1347 1346 1344 1343 1342 1341 1340
1358 1357 1356 1355 1355 1354 1354 1354 1354 1354 1354 1354 1356 1356 1357 1358 1359 1359 1358 1357 1356 1355 1353 1351 1349 1348 1346 1345 1343 1340 1340 1340 1338 1337 1334 1331 1329 1328
1360 1360 1359 1358 1357 1357 1356 1356 1356 1356 1356 1356 1357 1357 1357 1357 1356 1355 1354 1352 1351 1349 1348 1346 1344 1342 1340 1338 1335 1334 1332 1331 1330 1328 1325 1319 1314 1312
1362 1361 1360 1359 1359 1358 1358 1358 1357 1357 1357 1357 1356 1355 1355 1354 1353 1352 1350 1348 1346 1345 1343 1340 1338 1335 1332 1331 1329 1327 1326 1323 1321 1318 1316 1309 1300 1300
1364 1363 1361 1360 1360 1359 1359 1358 1358 1358 1357 1355 1355 1354 1353 1351 1350 1349 1347 1345 1343 1340 1338 1336 1333 1331 1329 1326 1324 1323 1320 1317 1313 1309 1306 1302 1294 1287
1364 1363 1362 1361 1360 1359 1359 1358 1357 1357 1356 1355 1353 1352 1350 1349 1347 1345 1343 1341 1339 1338 1335 1332 1330 1328 1325 1323 1320 1317 1316 1309 1305 1300 1296 1292 1287 1282
1363 1362 1361 1361 1360 1359 1359 1358 1357 1355 1354 1353 1352 1351 1349 1347 1345 1343 1342 1340 1338 1334 1331 1329 1327 1324 1321 1318 1315 1310 1308 1307 1302 1295 1291 1285 1279 1271
1363 1362 1361 1361 1360 1359 1358 1358 1356 1354 1353 1352 1351 1349 1348 1346 1344 1342 1340 1337 1334 1331 1328 1324 1321 1319 1317 1314 1310 1306 1302 1300 1298 1295 1293 1289 1283 1274
1361 1362 1360 1360 1360 1360 1359 1358 1356 1354 1352 1351 1349 1347 1345 1344 1342 1339 1337 1334 1331 1327 1324 1321 1318 1316 1313 1310 1306 1303 1300 1296 1296 1294 1290 1285 1280 1276